Location: Kerb�bon
(47.7970°N, 3.3487°W)
Time: 12:27:41
(UTC+00:00)

Cosmos 2218 Rocket - Pass Details

Date: 12 May 2021
Orbit: 957 x 1005 km, 82.9° (Epoch: 18 June)

Event Time Altitude Azimuth Distance (km) Brightness Sun altitude
Rises 22:34:06 0° 353° (N) 3,689 8.4 -20.4°
Reaches altitude 10° 22:36:40 10° 357° (N) 2,744 7.4 -20.6°
Maximum altitude 22:42:53 60° 77° (ENE) 1,124 4.2 -21.0°
Enters shadow 22:45:17 37° 140° (SE) 1,487 4.5 -21.2°
